Regional Weather Roundup
Issued by NWS

Home | Current Version | Previous Version | Text Only | Print | Product List | Glossary On
Versions: 1 2 3 4 5 6 7 8 9 10 11 12 13 14 15 16 17 18 19 20 21 22 23 24 25 26 27 28
000
ASUS46 KPQR 220910
RWROR

OREGON REGIONAL WEATHER ROUNDUP
NATIONAL WEATHER SERVICE PORTLAND OR
200 AM PDT SUN OCT 22 2017

NOTE: "FAIR" INDICATES FEW OR NO CLOUDS BELOW 12,000 FEET WITH
NO SIGNIFICANT WEATHER AND/OR OBSTRUCTIONS TO VISIBILITY.

ORZ001>013-221000-
NORTHWEST OREGON


CITY           SKY/WX    TMP DP  RH WIND       PRES   REMARKS
ASTORIA        LGT RAIN  56  56 100 SW13G21   29.85R FOG
NEWPORT        RAIN      55  55 100 S33G45    29.96R
PORTLAND       RAIN      60  58  92 SW13G26   29.89R FOG
VANCOUVER WA   RAIN      60  59  96 SW8       29.89R FOG
SCAPPOOSE      LGT RAIN  59  58  96 VRB5      29.87R
HILLSBORO      NOT AVBL
AURORA         HVY RAIN  59  59 100 SW13G24   29.95R FOG
MCMINNVILLE    RAIN      60  60 100 SW17      29.96R FOG
SALEM          RAIN      59  56  89 S21G30    29.94R FOG
CORVALLIS      RAIN      58  57  97 S16       29.99R
EUGENE         RAIN      57  57 100 S17       30.03S FOG
$$

ORZ021-028-221000-
SOUTHWEST OREGON


CITY           SKY/WX    TMP DP  RH WIND       PRES   REMARKS
NORTH BEND     RAIN      60  57  89 S25G35    30.12R FOG
BROOKINGS      CLOUDY    56  55  97 S16       30.28R
ROSEBURG       CLOUDY    59  54  83 S8        30.13S
SEXTON SUMMIT  FOG       47  46  97 S20G29    30.19F VSB 1/4
GRANTS PASS    MOCLDY    57  52  82 SE9       30.25S
MEDFORD        CLOUDY    49  49 100 CALM      30.24R FOG
$$

ORZ014>016-041-221000-
COLUMBIA GORGE


CITY           SKY/WX    TMP DP  RH WIND       PRES   REMARKS
TROUTDALE      RAIN      61  57  87 SW23G33   29.88R FOG
HOOD RIVER     HVY RAIN  59  54  82 SW5       29.81R
THE DALLES     LGT RAIN  49  48  97 CALM      29.82R FOG
$$

ORZ029>031-041-044-049-050-061>064-502-503-505>511-221000-
EASTERN OREGON


CITY           SKY/WX    TMP DP  RH WIND       PRES   REMARKS
MADRAS         MOCLDY    59  59 100 SW28G38   29.96R
REDMOND        MOCLDY    58  39  49 S18G28    29.98R
BEND           PTCLDY    55  43  62 SW25G38   29.98F
PRINEVILLE     CLOUDY    55  43  62 S21G33    30.00R
KLAMATH FALLS  CLOUDY    42  38  85 S14       30.26S
LAKEVIEW       CLOUDY    43  40  89 S12       30.30R
HERMISTON      CLOUDY    66  48  52 SW20G32   29.81R
PENDLETON      CLOUDY    61  44  53 S26G36    29.84R
JOHN DAY       PTCLDY    54  41  62 S29G47    30.06F
MEACHAM        CLOUDY    47  41  80 VRB3      29.96R
LA GRANDE      CLOUDY    46  39  76 S24G35    30.02F
BAKER CITY     CLOUDY    46  40  79 E17       30.09F
BURNS          CLOUDY    44  43  96 S9        30.18S
ROME             N/A     50  37  61 S16       30.18
ONTARIO        CLOUDY    43  41  93 NE5       30.18F
$$




USA.gov is the U.S. government's official web portal to all federal, state and local government web resources and services.